Location: Newark
(48.6461°N, 4.3644°W)
Time: 18:41:37
(UTC+00:00)

Transit 4A - Pass Details

Date: 25 January 2020
Orbit: 872 x 973 km, 66.8° (Epoch: 26 February)

Event Time Altitude Azimuth Distance (km) Brightness Sun altitude
Rises 16:48:11 0° 315° (NW) 3,471 11.1 1.4°
Reaches altitude 10° 16:51:11 10° 301° (WNW) 2,528 10.6 0.9°
Maximum altitude 16:55:28 22° 253° (WSW) 1,838 10.9 0.3°
Drops below altitude 10° 16:59:47 10° 205° (SSW) 2,535 11.2 -0.3°
Sets 17:02:49 0° 190° (S) 3,482 11.5 -0.7°
